Simultaneous Nadir Overpasses (SNOs) Predictions

Prediction of SNOs between GOES-17 and METOP-C Satellite Orbit:

Table of predicted SNOs for the next 14.0 days since TLE Epoch: 1/30/2021
Index Date Time (GOES-17) GOES-17 Lat,Lon METOP-C Lat,Lon Distance(km) Time Diff (sec)
1 01/31/2021 06:59:38 -0.00,-137.23 -0.97,-141.44 481.42 80
2 02/01/2021 06:36:20 -0.00,-137.23 0.19,-136.46 88.25 80
3 02/02/2021 18:55:11 0.00,-137.25 0.82,-141.02 429.27 80
4 02/03/2021 18:37:12 0.00,-137.25 -0.27,-136.02 140.09 80
5 02/05/2021 06:56:13 -0.00,-137.24 -0.74,-140.62 385.11 80
6 02/06/2021 06:32:53 -0.00,-137.23 0.36,-135.62 183.64 80
7 02/07/2021 18:51:45 0.01,-137.24 0.66,-140.18 335.50 80
8 02/08/2021 18:33:45 0.01,-137.23 -0.44,-135.18 232.92 80
9 02/10/2021 06:52:46 -0.01,-137.21 -0.56,-139.79 293.24 80
10 02/11/2021 06:29:27 -0.01,-137.20 0.54,-134.79 274.90 80
11 02/12/2021 18:48:18 0.01,-137.20 0.49,-139.34 245.04 80
